Find Starlink 3958

NORAD ID: 52535 Int'l Des: 2022-051 Owner: SPXS Country: US Constellation: starlink operational
LEOCIRCULAR

リアルタイム位置

3D地球を読み込み中...

Starlink 3958について

説明を読み込み中...

次回通過

Passes for default location (London). Set your location on the main map for personalized predictions.

高度履歴

Loading altitude history...

軌道要素

1 52535U 22051C 26124.61671267 .00000560 00000-0 53295-4 0 9990
2 52535 53.2181 238.0544 0001362 91.9804 268.1344 15.08830902219883
Epoch: May 4, 2026 • Age: 5 hours

現在のステータス

高度 542.4 km
速度 7.60 km/s
衛星直下点 38.88°N, 144.57°W
打ち上げ日 May 13, 2022
運用期間 3.9 years
タイプ internet

技術仕様

分類 Payload
質量 297.00 kg
乾燥質量 275.00 kg
総質量 297.00 kg
長さ 0.20 m
直径 2.80 m
スパン 9.00 m
形状 Box + pan
製造者 SPXS
バスタイプ Starlink
フェーズステータス In Orbit
所有者/国 SPXS/US

Most Searched